Zurück zum Katalog

COSMOS 1275 DEB

AktivPO
NORAD 12661·DEBRIS·🇷🇺 Russia

Gestartet Jun 4, 1981 von Plesetsk Cosmodrome

Loading…

Nächste Überflüge (nächste 24 Stunden)

TLE

AktuellSource: Space-Track

Epoche: Sep 14, 2026, 14:54 UTC

1 12661U 81053R   26257.62089419  .00000737  00000-0  75203-3 0  9991
2 12661  82.8013 198.1306 0119825 324.8793 152.8329 13.72440790242274

Verfolge COSMOS 1275 DEB in Echtzeit mit AllMySat

Download on the App Store